Location: *
(35.2348°S, 91.3916°E)
Time: 21:00:02
(UTC+00:00)

Kakehashi - Pass Details

Date: 23 October 2019
Orbit: 1051 x 17707 km, 30.2° (Epoch: 10 November)

Event Time Altitude Azimuth Distance (km) Brightness Sun altitude
Rises 14:33:09 0° 302° (WNW) 4,321 7.1 -25.9°
Reaches altitude 10° 14:36:11 10° 310° (NW) 3,003 6.2 -26.4°
Enters shadow 14:40:03 33° 344° (NNW) 1,683 4.5 -27.0°
